Location: Newark
(27.9675°N, 86.8869°E)
Time: 22:02:08
(UTC+00:00)

Vanguard 3 - Pass Details

Date: 28 October 2019
Orbit: 508 x 3263 km, 33.4° (Epoch: 20 November)

Event Time Altitude Azimuth Distance (km) Brightness Sun altitude
Rises 15:55:22 0° 266° (W) 4,191 11.2 -58.2°
Enters shadow 15:57:03 - 268° (W) 3,547 10.8 -58.5°
Reaches altitude 10° 15:58:57 10° 271° (W) 2,807 - -58.9°
Maximum altitude 16:05:00 52° 347° (NNW) 875 - -60.2°
Drops below altitude 10° 16:09:01 10° 65° (ENE) 1,867 - -61.0°
Sets 16:10:59 0° 71° (ENE) 2,661 - -61.4°
